Year,Month,Day,Hour,Minute,Value (Times are PST for temperature in C)
2016,08,18,00,00,13.70
2016,08,18,00,01,13.60
2016,08,18,00,02,13.60
2016,08,18,00,03,13.60
2016,08,18,00,04,13.50
2016,08,18,00,05,13.50
2016,08,18,00,06,13.50
2016,08,18,00,07,13.40
2016,08,18,00,08,13.40
2016,08,18,00,09,13.30
2016,08,18,00,10,13.30
2016,08,18,00,11,13.30
2016,08,18,00,12,13.30
2016,08,18,00,13,13.30
2016,08,18,00,14,13.30
2016,08,18,00,15,13.20
2016,08,18,00,16,13.20
2016,08,18,00,17,13.20
2016,08,18,00,18,13.10
2016,08,18,00,19,13.10
2016,08,18,00,20,13.10
2016,08,18,00,21,13.00
2016,08,18,00,22,13.00
2016,08,18,00,23,13.00
2016,08,18,00,24,12.90
2016,08,18,00,25,12.90
2016,08,18,00,26,12.90
2016,08,18,00,27,12.90
2016,08,18,00,28,12.90
2016,08,18,00,29,12.80
2016,08,18,00,30,12.80
2016,08,18,00,31,12.80
2016,08,18,00,32,12.80
2016,08,18,00,33,12.80
2016,08,18,00,34,12.80
2016,08,18,00,35,12.80
2016,08,18,00,36,12.80
2016,08,18,00,37,12.80
2016,08,18,00,38,12.80
2016,08,18,00,39,12.80
2016,08,18,00,40,12.80
2016,08,18,00,41,12.80
2016,08,18,00,42,12.80
2016,08,18,00,43,12.80
2016,08,18,00,44,12.80
2016,08,18,00,45,12.80
2016,08,18,00,46,12.80
2016,08,18,00,47,12.80
2016,08,18,00,48,12.80
2016,08,18,00,49,12.80
2016,08,18,00,50,12.80
2016,08,18,00,51,12.80
2016,08,18,00,52,12.80
2016,08,18,00,53,12.80
2016,08,18,00,54,12.80
2016,08,18,00,55,12.80
2016,08,18,00,56,12.80
2016,08,18,00,57,12.80
2016,08,18,00,58,12.80
2016,08,18,00,59,12.80
2016,08,18,01,00,12.80
2016,08,18,01,01,12.90
2016,08,18,01,02,12.90
2016,08,18,01,03,12.90
2016,08,18,01,04,12.90
2016,08,18,01,05,13.00
2016,08,18,01,06,13.00
2016,08,18,01,07,13.00
2016,08,18,01,08,13.10
2016,08,18,01,09,13.10
2016,08,18,01,10,13.10
2016,08,18,01,11,13.20
2016,08,18,01,12,13.20
2016,08,18,01,13,13.20
2016,08,18,01,14,13.20
2016,08,18,01,15,13.20
2016,08,18,01,16,13.20
2016,08,18,01,17,13.20
2016,08,18,01,18,13.30
2016,08,18,01,19,13.30
2016,08,18,01,20,13.30
2016,08,18,01,21,13.30
2016,08,18,01,22,13.30
2016,08,18,01,23,13.30
2016,08,18,01,24,13.30
2016,08,18,01,25,13.30
2016,08,18,01,26,13.30
2016,08,18,01,27,13.30
2016,08,18,01,28,13.30
2016,08,18,01,29,13.30
2016,08,18,01,30,13.30
2016,08,18,01,31,13.30
2016,08,18,01,32,13.30
2016,08,18,01,33,13.30
2016,08,18,01,34,13.30
2016,08,18,01,35,13.30
2016,08,18,01,36,13.30
2016,08,18,01,37,13.30
2016,08,18,01,38,13.30
2016,08,18,01,39,13.40
2016,08,18,01,40,13.40
2016,08,18,01,41,13.50
2016,08,18,01,42,13.50
2016,08,18,01,43,13.50
2016,08,18,01,44,13.60
2016,08,18,01,45,13.60
2016,08,18,01,46,13.60
2016,08,18,01,47,13.60
2016,08,18,01,48,13.70
2016,08,18,01,49,13.70
2016,08,18,01,50,13.70
2016,08,18,01,51,13.70
2016,08,18,01,52,13.70
2016,08,18,01,53,13.70
2016,08,18,01,54,13.80
2016,08,18,01,55,13.80
2016,08,18,01,56,13.90
2016,08,18,01,57,13.90
2016,08,18,01,58,13.90
2016,08,18,01,59,14.00
2016,08,18,02,00,14.00
2016,08,18,02,01,14.10
2016,08,18,02,02,14.10
2016,08,18,02,03,14.20
2016,08,18,02,04,14.20
2016,08,18,02,05,14.30
2016,08,18,02,06,14.40
2016,08,18,02,07,14.60
2016,08,18,02,08,14.70
2016,08,18,02,09,14.90
2016,08,18,02,10,15.10
2016,08,18,02,11,15.20
2016,08,18,02,12,15.30
2016,08,18,02,13,15.50
2016,08,18,02,14,15.60
2016,08,18,02,15,15.70
2016,08,18,02,16,15.80
2016,08,18,02,17,15.90
2016,08,18,02,18,16.10
2016,08,18,02,19,16.20
2016,08,18,02,20,16.30
2016,08,18,02,21,16.40
2016,08,18,02,22,16.50
2016,08,18,02,23,16.70
2016,08,18,02,24,16.80
2016,08,18,02,25,16.90
2016,08,18,02,26,16.90
2016,08,18,02,27,17.00
2016,08,18,02,28,17.10
2016,08,18,02,29,17.20
2016,08,18,02,30,17.20
2016,08,18,02,31,17.30
2016,08,18,02,32,17.30
2016,08,18,02,33,17.30
2016,08,18,02,34,17.10
2016,08,18,02,35,17.00
2016,08,18,02,36,16.90
2016,08,18,02,37,16.80
2016,08,18,02,38,16.60
2016,08,18,02,39,16.40
2016,08,18,02,40,16.30
2016,08,18,02,41,16.20
2016,08,18,02,42,16.10
2016,08,18,02,43,16.00
2016,08,18,02,44,15.90
2016,08,18,02,45,15.80
2016,08,18,02,46,15.80
2016,08,18,02,47,15.70
2016,08,18,02,48,15.70
2016,08,18,02,49,15.60
2016,08,18,02,50,15.60
2016,08,18,02,51,15.50
2016,08,18,02,52,15.40
2016,08,18,02,53,15.40
2016,08,18,02,54,15.30
2016,08,18,02,55,15.30
2016,08,18,02,56,15.20
2016,08,18,02,57,15.20
2016,08,18,02,58,15.10
2016,08,18,02,59,15.10
2016,08,18,03,00,15.00
2016,08,18,03,01,14.90
2016,08,18,03,02,14.80
2016,08,18,03,03,14.70
2016,08,18,03,04,14.60
2016,08,18,03,05,14.60
2016,08,18,03,06,14.50
2016,08,18,03,07,14.50
2016,08,18,03,08,14.40
2016,08,18,03,09,14.40
2016,08,18,03,10,14.30
2016,08,18,03,11,14.30
2016,08,18,03,12,14.30
2016,08,18,03,13,14.30
2016,08,18,03,14,14.30
2016,08,18,03,15,14.20
2016,08,18,03,16,14.20
2016,08,18,03,17,14.20
2016,08,18,03,18,14.20
2016,08,18,03,19,14.20
2016,08,18,03,20,14.20
2016,08,18,03,21,14.20
2016,08,18,03,22,14.30
2016,08,18,03,23,14.30
2016,08,18,03,24,14.40
2016,08,18,03,25,14.40
2016,08,18,03,26,14.50
2016,08,18,03,27,14.60
2016,08,18,03,28,14.60
2016,08,18,03,29,14.80
2016,08,18,03,30,14.90
2016,08,18,03,31,15.00
2016,08,18,03,32,15.10
2016,08,18,03,33,15.20
2016,08,18,03,34,15.20
2016,08,18,03,35,15.30
2016,08,18,03,36,15.30
2016,08,18,03,37,15.40
2016,08,18,03,38,15.40
2016,08,18,03,39,15.50
2016,08,18,03,40,15.50
2016,08,18,03,41,15.60
2016,08,18,03,42,15.60
2016,08,18,03,43,15.70
2016,08,18,03,44,15.70
2016,08,18,03,45,15.70
2016,08,18,03,46,15.70
2016,08,18,03,47,15.70
2016,08,18,03,48,15.70
2016,08,18,03,49,15.70
2016,08,18,03,50,15.80
2016,08,18,03,51,15.80
2016,08,18,03,52,15.80
2016,08,18,03,53,15.80
2016,08,18,03,54,15.80
2016,08,18,03,55,15.90
2016,08,18,03,56,15.90
2016,08,18,03,57,15.90
2016,08,18,03,58,16.00
2016,08,18,03,59,16.10
2016,08,18,04,00,16.10
2016,08,18,04,01,16.20
2016,08,18,04,02,16.20
2016,08,18,04,03,16.30
2016,08,18,04,04,16.40
2016,08,18,04,05,16.40
2016,08,18,04,06,16.40
2016,08,18,04,07,16.40
2016,08,18,04,08,16.40
2016,08,18,04,09,16.40
2016,08,18,04,10,16.40
2016,08,18,04,11,16.40
2016,08,18,04,12,16.40
2016,08,18,04,13,16.40
2016,08,18,04,14,16.40
2016,08,18,04,15,16.40
2016,08,18,04,16,16.40
2016,08,18,04,17,16.40
2016,08,18,04,18,16.40
2016,08,18,04,19,16.50
2016,08,18,04,20,16.60
2016,08,18,04,21,16.60
2016,08,18,04,22,16.60
2016,08,18,04,23,16.70
2016,08,18,04,24,16.80
2016,08,18,04,25,16.90
2016,08,18,04,26,17.10
2016,08,18,04,27,17.20
2016,08,18,04,28,17.40
2016,08,18,04,29,17.50
2016,08,18,04,30,17.70
2016,08,18,04,31,17.80
2016,08,18,04,32,17.90
2016,08,18,04,33,17.90
2016,08,18,04,34,18.00
2016,08,18,04,35,18.10
2016,08,18,04,36,18.20
2016,08,18,04,37,18.20
2016,08,18,04,38,18.20
2016,08,18,04,39,18.20
2016,08,18,04,40,18.30
2016,08,18,04,41,18.30
2016,08,18,04,42,18.30
2016,08,18,04,43,18.30
2016,08,18,04,44,18.30
2016,08,18,04,45,18.30
2016,08,18,04,46,18.30
2016,08,18,04,47,18.30
2016,08,18,04,48,18.30
2016,08,18,04,49,18.20
2016,08,18,04,50,18.20
2016,08,18,04,51,18.20
2016,08,18,04,52,18.20
2016,08,18,04,53,18.20
2016,08,18,04,54,18.20
2016,08,18,04,55,18.20
2016,08,18,04,56,18.10
2016,08,18,04,57,18.10
2016,08,18,04,58,18.10
2016,08,18,04,59,18.00
2016,08,18,05,00,17.90
2016,08,18,05,01,17.90
2016,08,18,05,02,17.90
2016,08,18,05,03,17.90
2016,08,18,05,04,17.80
2016,08,18,05,05,17.80
2016,08,18,05,06,17.70
2016,08,18,05,07,17.70
2016,08,18,05,08,17.70
2016,08,18,05,09,17.60
2016,08,18,05,10,17.60
2016,08,18,05,11,17.50
2016,08,18,05,12,17.50
2016,08,18,05,13,17.50
2016,08,18,05,14,17.40
2016,08,18,05,15,17.40
2016,08,18,05,16,17.40
2016,08,18,05,17,17.40
2016,08,18,05,18,17.40
2016,08,18,05,19,17.40
2016,08,18,05,20,17.40
2016,08,18,05,21,17.40
2016,08,18,05,22,17.40
2016,08,18,05,23,17.40
2016,08,18,05,24,17.40
2016,08,18,05,25,17.40
2016,08,18,05,26,17.40
2016,08,18,05,27,17.40
2016,08,18,05,28,17.40
2016,08,18,05,29,17.40
2016,08,18,05,30,17.40
2016,08,18,05,31,17.40
2016,08,18,05,32,17.40
2016,08,18,05,33,17.50
2016,08,18,05,34,17.50
2016,08,18,05,35,17.50
2016,08,18,05,36,17.50
2016,08,18,05,37,17.50
2016,08,18,05,38,17.50
2016,08,18,05,39,17.50
2016,08,18,05,40,17.50
2016,08,18,05,41,17.50
2016,08,18,05,42,17.50
2016,08,18,05,43,17.40
2016,08,18,05,44,17.40
2016,08,18,05,45,17.40
2016,08,18,05,46,17.40
2016,08,18,05,47,17.40
2016,08,18,05,48,17.40
2016,08,18,05,49,17.40
2016,08,18,05,50,17.40
2016,08,18,05,51,17.30
2016,08,18,05,52,17.30
2016,08,18,05,53,17.30
2016,08,18,05,54,17.30
2016,08,18,05,55,17.30
2016,08,18,05,56,17.30
2016,08,18,05,57,17.20
2016,08,18,05,58,17.20
2016,08,18,05,59,17.20
2016,08,18,06,00,17.10
2016,08,18,06,01,17.10
2016,08,18,06,02,17.00
2016,08,18,06,03,17.00
2016,08,18,06,04,17.00
2016,08,18,06,05,16.90
2016,08,18,06,06,16.80
2016,08,18,06,07,16.80
2016,08,18,06,08,16.70
2016,08,18,06,09,16.60
2016,08,18,06,10,16.50
2016,08,18,06,11,16.40
2016,08,18,06,12,16.30
2016,08,18,06,13,16.20
2016,08,18,06,14,16.10
2016,08,18,06,15,16.10
2016,08,18,06,16,15.90
2016,08,18,06,17,15.90
2016,08,18,06,18,15.80
2016,08,18,06,19,15.80
2016,08,18,06,20,15.70
2016,08,18,06,21,15.60
2016,08,18,06,22,15.60
2016,08,18,06,23,15.50
2016,08,18,06,24,15.50
2016,08,18,06,25,15.50
2016,08,18,06,26,15.50
2016,08,18,06,27,15.50
2016,08,18,06,28,15.50
2016,08,18,06,29,15.50
2016,08,18,06,30,15.40
2016,08,18,06,31,15.40
2016,08,18,06,32,15.40
2016,08,18,06,33,15.40
2016,08,18,06,34,15.40
2016,08,18,06,35,15.30
2016,08,18,06,36,15.30
2016,08,18,06,37,15.30
2016,08,18,06,38,15.30
2016,08,18,06,39,15.30
2016,08,18,06,40,15.30
2016,08,18,06,41,15.30
2016,08,18,06,42,15.30
2016,08,18,06,43,15.30
2016,08,18,06,44,15.30
2016,08,18,06,45,15.30
2016,08,18,06,46,15.30
2016,08,18,06,47,15.30
2016,08,18,06,48,15.30
2016,08,18,06,49,15.40
2016,08,18,06,50,15.40
2016,08,18,06,51,15.40
2016,08,18,06,52,15.40
2016,08,18,06,53,15.50
2016,08,18,06,54,15.50
2016,08,18,06,55,15.50
2016,08,18,06,56,15.60
2016,08,18,06,57,15.60
2016,08,18,06,58,15.70
2016,08,18,06,59,15.70
2016,08,18,07,00,15.80
2016,08,18,07,01,15.80
2016,08,18,07,02,15.80
2016,08,18,07,03,15.80
2016,08,18,07,04,15.90
2016,08,18,07,05,15.90
2016,08,18,07,06,16.00
2016,08,18,07,07,16.10
2016,08,18,07,08,16.10
2016,08,18,07,09,16.10
2016,08,18,07,10,16.10
2016,08,18,07,11,16.20
2016,08,18,07,12,16.20
2016,08,18,07,13,16.30
2016,08,18,07,14,16.30
2016,08,18,07,15,16.40
2016,08,18,07,16,16.40
2016,08,18,07,17,16.40
2016,08,18,07,18,16.50
2016,08,18,07,19,16.60
2016,08,18,07,20,16.60
2016,08,18,07,21,16.60
2016,08,18,07,22,16.70
2016,08,18,07,23,16.70
2016,08,18,07,24,16.70
2016,08,18,07,25,16.70
2016,08,18,07,26,16.80
2016,08,18,07,27,16.80
2016,08,18,07,28,16.80
2016,08,18,07,29,16.90
2016,08,18,07,30,16.90
2016,08,18,07,31,17.00
2016,08,18,07,32,17.00
2016,08,18,07,33,17.00
2016,08,18,07,34,17.10
2016,08,18,07,35,17.10
2016,08,18,07,36,17.20
2016,08,18,07,37,17.20
2016,08,18,07,38,17.30
2016,08,18,07,39,17.30
2016,08,18,07,40,17.30
2016,08,18,07,41,17.30
2016,08,18,07,42,17.30
2016,08,18,07,43,17.40
2016,08,18,07,44,17.40
2016,08,18,07,45,17.40
2016,08,18,07,46,17.40
2016,08,18,07,47,17.40
2016,08,18,07,48,17.40
2016,08,18,07,49,17.50
2016,08,18,07,50,17.50
2016,08,18,07,51,17.50
2016,08,18,07,52,17.50
2016,08,18,07,53,17.60
2016,08,18,07,54,17.60
2016,08,18,07,55,17.60
2016,08,18,07,56,17.70
2016,08,18,07,57,17.70
2016,08,18,07,58,17.70
2016,08,18,07,59,17.80
2016,08,18,08,00,17.80
2016,08,18,08,01,17.90
2016,08,18,08,02,17.90
2016,08,18,08,03,17.90
2016,08,18,08,04,18.00
2016,08,18,08,05,18.10
2016,08,18,08,06,18.10
2016,08,18,08,07,18.10
2016,08,18,08,08,18.20
2016,08,18,08,09,18.20
2016,08,18,08,10,18.20
2016,08,18,08,11,18.30
2016,08,18,08,12,18.30
2016,08,18,08,13,18.40
2016,08,18,08,14,18.50
2016,08,18,08,15,18.50
2016,08,18,08,16,18.60
2016,08,18,08,17,18.60
2016,08,18,08,18,18.70
2016,08,18,08,19,18.70
2016,08,18,08,20,18.80
2016,08,18,08,21,18.80
2016,08,18,08,22,18.90
2016,08,18,08,23,18.90
2016,08,18,08,24,18.90
2016,08,18,08,25,18.90
2016,08,18,08,26,18.90
2016,08,18,08,27,19.00
2016,08,18,08,28,19.10
2016,08,18,08,29,19.10
2016,08,18,08,30,19.10
2016,08,18,08,31,19.10
2016,08,18,08,32,19.20
2016,08,18,08,33,19.20
2016,08,18,08,34,19.20
2016,08,18,08,35,19.30
2016,08,18,08,36,19.30
2016,08,18,08,37,19.40
2016,08,18,08,38,19.40
2016,08,18,08,39,19.50
2016,08,18,08,40,19.50
2016,08,18,08,41,19.60
2016,08,18,08,42,19.60
2016,08,18,08,43,19.70
2016,08,18,08,44,19.80
2016,08,18,08,45,19.90
2016,08,18,08,46,19.90
2016,08,18,08,47,20.10
2016,08,18,08,48,20.20
2016,08,18,08,49,20.20
2016,08,18,08,50,20.40
2016,08,18,08,51,20.50
2016,08,18,08,52,20.70
2016,08,18,08,53,20.80
2016,08,18,08,54,21.00
2016,08,18,08,55,21.20
2016,08,18,08,56,21.30
2016,08,18,08,57,21.40
2016,08,18,08,58,21.60
2016,08,18,08,59,21.60
2016,08,18,09,00,21.70
2016,08,18,09,01,21.70
2016,08,18,09,02,21.60
2016,08,18,09,03,21.60
2016,08,18,09,04,21.60
2016,08,18,09,05,21.60
2016,08,18,09,06,21.50
2016,08,18,09,07,21.40
2016,08,18,09,08,21.30
2016,08,18,09,09,21.30
2016,08,18,09,10,21.30
2016,08,18,09,11,21.40
2016,08,18,09,12,21.40
2016,08,18,09,13,21.50
2016,08,18,09,14,21.60
2016,08,18,09,15,21.60
2016,08,18,09,16,21.60
2016,08,18,09,17,21.60
2016,08,18,09,18,21.60
2016,08,18,09,19,21.60
2016,08,18,09,20,21.60
2016,08,18,09,21,21.60
2016,08,18,09,22,21.60
2016,08,18,09,23,21.60
2016,08,18,09,24,21.60
2016,08,18,09,25,21.60
2016,08,18,09,26,21.60
2016,08,18,09,27,21.50
2016,08,18,09,28,21.40
2016,08,18,09,29,21.40
2016,08,18,09,30,21.30
2016,08,18,09,31,21.30
2016,08,18,09,32,21.30
2016,08,18,09,33,21.30
2016,08,18,09,34,21.30
2016,08,18,09,35,21.20
2016,08,18,09,36,21.20
2016,08,18,09,37,21.20
2016,08,18,09,38,21.30
2016,08,18,09,39,21.30
2016,08,18,09,40,21.30
2016,08,18,09,41,21.30
2016,08,18,09,42,21.30
2016,08,18,09,43,21.30
2016,08,18,09,44,21.30
2016,08,18,09,45,21.30
2016,08,18,09,46,21.30
2016,08,18,09,47,21.30
2016,08,18,09,48,21.30
2016,08,18,09,49,21.30
2016,08,18,09,50,21.30
2016,08,18,09,51,21.30
2016,08,18,09,52,21.30
2016,08,18,09,53,21.30
2016,08,18,09,54,21.40
2016,08,18,09,55,21.50
2016,08,18,09,56,21.60
2016,08,18,09,57,21.60
2016,08,18,09,58,21.70
2016,08,18,09,59,21.80
2016,08,18,10,00,21.80
2016,08,18,10,01,21.90
2016,08,18,10,02,21.90
2016,08,18,10,03,22.00
2016,08,18,10,04,22.00
2016,08,18,10,05,22.00
2016,08,18,10,06,22.00
2016,08,18,10,07,22.00
2016,08,18,10,08,22.10
2016,08,18,10,09,22.10
2016,08,18,10,10,22.20
2016,08,18,10,11,22.30
2016,08,18,10,12,22.40
2016,08,18,10,13,22.50
2016,08,18,10,14,22.50
2016,08,18,10,15,22.60
2016,08,18,10,16,22.60
2016,08,18,10,17,22.60
2016,08,18,10,18,22.60
2016,08,18,10,19,22.50
2016,08,18,10,20,22.50
2016,08,18,10,21,22.40
2016,08,18,10,22,22.40
2016,08,18,10,23,22.40
2016,08,18,10,24,22.40
2016,08,18,10,25,22.40
2016,08,18,10,26,22.50
2016,08,18,10,27,22.50
2016,08,18,10,28,22.60
2016,08,18,10,29,22.60
2016,08,18,10,30,22.70
2016,08,18,10,31,22.70
2016,08,18,10,32,22.70
2016,08,18,10,33,22.60
2016,08,18,10,34,22.60
2016,08,18,10,35,22.50
2016,08,18,10,36,22.50
2016,08,18,10,37,22.50
2016,08,18,10,38,22.50
2016,08,18,10,39,22.50
2016,08,18,10,40,22.50
2016,08,18,10,41,22.50
2016,08,18,10,42,22.50
2016,08,18,10,43,22.60
2016,08,18,10,44,22.50
2016,08,18,10,45,22.60
2016,08,18,10,46,22.60
2016,08,18,10,47,22.60
2016,08,18,10,48,22.70
2016,08,18,10,49,22.70
2016,08,18,10,50,22.80
2016,08,18,10,51,22.80
2016,08,18,10,52,22.80
2016,08,18,10,53,22.80
2016,08,18,10,54,22.90
2016,08,18,10,55,22.90
2016,08,18,10,56,23.00
2016,08,18,10,57,23.10
2016,08,18,10,58,23.10
2016,08,18,10,59,23.00
2016,08,18,11,00,22.90
2016,08,18,11,01,22.90
2016,08,18,11,02,22.90
2016,08,18,11,03,23.00
2016,08,18,11,04,23.10
2016,08,18,11,05,23.10
2016,08,18,11,06,23.20
2016,08,18,11,07,23.20
2016,08,18,11,08,23.20
2016,08,18,11,09,23.10
2016,08,18,11,10,23.10
2016,08,18,11,11,23.10
2016,08,18,11,12,23.10
2016,08,18,11,13,23.10
2016,08,18,11,14,23.10
2016,08,18,11,15,23.00
2016,08,18,11,16,22.90
2016,08,18,11,17,22.90
2016,08,18,11,18,23.00
2016,08,18,11,19,23.10
2016,08,18,11,20,23.20
2016,08,18,11,21,23.20
2016,08,18,11,22,23.20
2016,08,18,11,23,23.30
2016,08,18,11,24,23.30
2016,08,18,11,25,23.30
2016,08,18,11,26,23.30
2016,08,18,11,27,23.30
2016,08,18,11,28,23.20
2016,08,18,11,29,23.20
2016,08,18,11,30,23.20
2016,08,18,11,31,23.10
2016,08,18,11,32,23.10
2016,08,18,11,33,23.10
2016,08,18,11,34,23.20
2016,08,18,11,35,23.20
2016,08,18,11,36,23.20
2016,08,18,11,37,23.20
2016,08,18,11,38,23.20
2016,08,18,11,39,23.30
2016,08,18,11,40,23.30
2016,08,18,11,41,23.30
2016,08,18,11,42,23.30
2016,08,18,11,43,23.30
2016,08,18,11,44,23.40
2016,08,18,11,45,23.40
2016,08,18,11,46,23.50
2016,08,18,11,47,23.60
2016,08,18,11,48,23.70
2016,08,18,11,49,23.70
2016,08,18,11,50,23.70
2016,08,18,11,51,23.80
2016,08,18,11,52,23.80
2016,08,18,11,53,23.90
2016,08,18,11,54,23.90
2016,08,18,11,55,23.90
2016,08,18,11,56,24.00
2016,08,18,11,57,24.10
2016,08,18,11,58,24.10
2016,08,18,11,59,24.10
2016,08,18,12,00,24.20
2016,08,18,12,01,24.20
2016,08,18,12,02,24.20
2016,08,18,12,03,24.20
2016,08,18,12,04,24.20
2016,08,18,12,05,24.20
2016,08,18,12,06,24.10
2016,08,18,12,07,24.10
2016,08,18,12,08,24.20
2016,08,18,12,09,24.30
2016,08,18,12,10,24.40
2016,08,18,12,11,24.50
2016,08,18,12,12,24.70
2016,08,18,12,13,24.70
2016,08,18,12,14,24.80
2016,08,18,12,15,24.90
2016,08,18,12,16,25.00
2016,08,18,12,17,25.00
2016,08,18,12,18,25.00
2016,08,18,12,19,25.00
2016,08,18,12,20,25.00
2016,08,18,12,21,25.00
2016,08,18,12,22,24.90
2016,08,18,12,23,24.90
2016,08,18,12,24,25.00
2016,08,18,12,25,25.00
2016,08,18,12,26,25.00
2016,08,18,12,27,25.10
2016,08,18,12,28,25.10
2016,08,18,12,29,25.20
2016,08,18,12,30,25.20
2016,08,18,12,31,25.20
2016,08,18,12,32,25.20
2016,08,18,12,33,25.20
2016,08,18,12,34,25.30
2016,08,18,12,35,25.30
2016,08,18,12,36,25.30
2016,08,18,12,37,25.30
2016,08,18,12,38,25.20
2016,08,18,12,39,25.20
2016,08,18,12,40,25.20
2016,08,18,12,41,25.20
2016,08,18,12,42,25.20
2016,08,18,12,43,25.30
2016,08,18,12,44,25.30
2016,08,18,12,45,25.30
2016,08,18,12,46,25.40
2016,08,18,12,47,25.40
2016,08,18,12,48,25.50
2016,08,18,12,49,25.60
2016,08,18,12,50,25.70
2016,08,18,12,51,25.80
2016,08,18,12,52,25.90
2016,08,18,12,53,25.90
2016,08,18,12,54,26.00
2016,08,18,12,55,26.00
2016,08,18,12,56,26.10
2016,08,18,12,57,26.10
2016,08,18,12,58,26.10
2016,08,18,12,59,26.00
2016,08,18,13,00,26.00
2016,08,18,13,01,25.90
2016,08,18,13,02,25.90
2016,08,18,13,03,25.90
2016,08,18,13,04,25.80
2016,08,18,13,05,25.90
2016,08,18,13,06,25.80
2016,08,18,13,07,25.80
2016,08,18,13,08,25.80
2016,08,18,13,09,25.70
2016,08,18,13,10,25.70
2016,08,18,13,11,25.60
2016,08,18,13,12,25.60
2016,08,18,13,13,25.60
2016,08,18,13,14,25.70
2016,08,18,13,15,25.70
2016,08,18,13,16,25.80
2016,08,18,13,17,25.80
2016,08,18,13,18,25.90
2016,08,18,13,19,26.00
2016,08,18,13,20,26.00
2016,08,18,13,21,26.10
2016,08,18,13,22,26.10
2016,08,18,13,23,26.10
2016,08,18,13,24,26.10
2016,08,18,13,25,26.10
2016,08,18,13,26,26.20
2016,08,18,13,27,26.20
2016,08,18,13,28,26.20
2016,08,18,13,29,26.20
2016,08,18,13,30,26.30
2016,08,18,13,31,26.30
2016,08,18,13,32,26.30
2016,08,18,13,33,26.30
2016,08,18,13,34,26.20
2016,08,18,13,35,26.20
2016,08,18,13,36,26.20
2016,08,18,13,37,26.20
2016,08,18,13,38,26.30
2016,08,18,13,39,26.30
2016,08,18,13,40,26.40
2016,08,18,13,41,26.50
2016,08,18,13,42,26.60
2016,08,18,13,43,26.70
2016,08,18,13,44,26.80
2016,08,18,13,45,26.80
2016,08,18,13,46,26.80
2016,08,18,13,47,26.80
2016,08,18,13,48,26.80
2016,08,18,13,49,26.80
2016,08,18,13,50,26.90
2016,08,18,13,51,27.00
2016,08,18,13,52,27.10
2016,08,18,13,53,27.10
2016,08,18,13,54,27.20
2016,08,18,13,55,27.20
2016,08,18,13,56,27.20
2016,08,18,13,57,27.20
2016,08,18,13,58,27.30
2016,08,18,13,59,27.30
2016,08,18,14,00,27.30
2016,08,18,14,01,27.30
2016,08,18,14,02,27.40
2016,08,18,14,03,27.40
2016,08,18,14,04,27.50
2016,08,18,14,05,27.60
2016,08,18,14,06,27.50
2016,08,18,14,07,27.40
2016,08,18,14,08,27.30
2016,08,18,14,09,27.20
2016,08,18,14,10,27.10
2016,08,18,14,11,27.00
2016,08,18,14,12,26.90
2016,08,18,14,13,26.90
2016,08,18,14,14,26.80
2016,08,18,14,15,26.80
2016,08,18,14,16,26.90
2016,08,18,14,17,27.00
2016,08,18,14,18,27.10
2016,08,18,14,19,27.20
2016,08,18,14,20,27.20
2016,08,18,14,21,27.30
2016,08,18,14,22,27.30
2016,08,18,14,23,27.40
2016,08,18,14,24,27.40
2016,08,18,14,25,27.40
2016,08,18,14,26,27.40
2016,08,18,14,27,27.50
2016,08,18,14,28,27.60
2016,08,18,14,29,27.60
2016,08,18,14,30,27.70
2016,08,18,14,31,27.70
2016,08,18,14,32,27.60
2016,08,18,14,33,27.60
2016,08,18,14,34,27.60
2016,08,18,14,35,27.60
2016,08,18,14,36,27.60
2016,08,18,14,37,27.60
2016,08,18,14,38,27.60
2016,08,18,14,39,27.50
2016,08,18,14,40,27.40
2016,08,18,14,41,27.60
2016,08,18,14,42,27.60
2016,08,18,14,43,27.60
2016,08,18,14,44,27.70
2016,08,18,14,45,27.70
2016,08,18,14,46,27.80
2016,08,18,14,47,27.80
2016,08,18,14,48,27.90
2016,08,18,14,49,27.90
2016,08,18,14,50,27.90
2016,08,18,14,51,27.80
2016,08,18,14,52,27.80
2016,08,18,14,53,27.80
2016,08,18,14,54,27.80
2016,08,18,14,55,27.80
2016,08,18,14,56,27.80
2016,08,18,14,57,27.90
2016,08,18,14,58,28.00
2016,08,18,14,59,28.00
2016,08,18,15,00,28.00
2016,08,18,15,01,28.10
2016,08,18,15,02,28.10
2016,08,18,15,03,28.10
2016,08,18,15,04,28.00
2016,08,18,15,05,28.00
2016,08,18,15,06,27.90
2016,08,18,15,07,27.80
2016,08,18,15,08,27.80
2016,08,18,15,09,27.80
2016,08,18,15,10,27.70
2016,08,18,15,11,27.70
2016,08,18,15,12,27.80
2016,08,18,15,13,27.80
2016,08,18,15,14,27.80
2016,08,18,15,15,27.80
2016,08,18,15,16,27.90
2016,08,18,15,17,27.90
2016,08,18,15,18,27.90
2016,08,18,15,19,28.00
2016,08,18,15,20,27.90
2016,08,18,15,21,27.90
2016,08,18,15,22,28.00
2016,08,18,15,23,28.00
2016,08,18,15,24,28.10
2016,08,18,15,25,28.20
2016,08,18,15,26,28.20
2016,08,18,15,27,28.30
2016,08,18,15,28,28.30
2016,08,18,15,29,28.30
2016,08,18,15,30,28.30
2016,08,18,15,31,28.30
2016,08,18,15,32,28.30
2016,08,18,15,33,28.30
2016,08,18,15,34,28.20
2016,08,18,15,35,28.20
2016,08,18,15,36,28.20
2016,08,18,15,37,28.20
2016,08,18,15,38,28.20
2016,08,18,15,39,28.20
2016,08,18,15,40,28.20
2016,08,18,15,41,28.20
2016,08,18,15,42,28.20
2016,08,18,15,43,28.20
2016,08,18,15,44,28.20
2016,08,18,15,45,28.30
2016,08,18,15,46,28.40
2016,08,18,15,47,28.50
2016,08,18,15,48,28.60
2016,08,18,15,49,28.60
2016,08,18,15,50,28.60
2016,08,18,15,51,28.70
2016,08,18,15,52,28.70
2016,08,18,15,53,28.70
2016,08,18,15,54,28.70
2016,08,18,15,55,28.80
2016,08,18,15,56,28.80
2016,08,18,15,57,28.80
2016,08,18,15,58,28.80
2016,08,18,15,59,28.90
2016,08,18,16,00,28.90
2016,08,18,16,01,28.90
2016,08,18,16,02,28.90
2016,08,18,16,03,28.90
2016,08,18,16,04,29.00
2016,08,18,16,05,29.10
2016,08,18,16,06,29.10
2016,08,18,16,07,29.20
2016,08,18,16,08,29.20
2016,08,18,16,09,29.20
2016,08,18,16,10,29.20
2016,08,18,16,11,29.20
2016,08,18,16,12,29.10
2016,08,18,16,13,29.10
2016,08,18,16,14,29.00
2016,08,18,16,15,28.90
2016,08,18,16,16,28.90
2016,08,18,16,17,28.90
2016,08,18,16,18,28.90
2016,08,18,16,19,28.90
2016,08,18,16,20,28.90
2016,08,18,16,21,28.90
2016,08,18,16,22,28.90
2016,08,18,16,23,28.90
2016,08,18,16,24,28.90
2016,08,18,16,25,29.00
2016,08,18,16,26,29.10
2016,08,18,16,27,29.10
2016,08,18,16,28,29.10
2016,08,18,16,29,29.10
2016,08,18,16,30,29.10
2016,08,18,16,31,29.10
2016,08,18,16,32,29.10
2016,08,18,16,33,29.10
2016,08,18,16,34,29.10
2016,08,18,16,35,29.10
2016,08,18,16,36,29.10
2016,08,18,16,37,29.10
2016,08,18,16,38,29.00
2016,08,18,16,39,28.90
2016,08,18,16,40,28.90
2016,08,18,16,41,29.10
2016,08,18,16,42,29.10
2016,08,18,16,43,29.10
2016,08,18,16,44,29.10
2016,08,18,16,45,29.10
2016,08,18,16,46,29.10
2016,08,18,16,47,29.10
2016,08,18,16,48,29.20
2016,08,18,16,49,29.20
2016,08,18,16,50,29.30
2016,08,18,16,51,29.30
2016,08,18,16,52,29.30
2016,08,18,16,53,29.40
2016,08,18,16,54,29.40
2016,08,18,16,55,29.50
2016,08,18,16,56,29.50
2016,08,18,16,57,29.60
2016,08,18,16,58,29.60
2016,08,18,16,59,29.60
2016,08,18,17,00,29.70
2016,08,18,17,01,29.70
2016,08,18,17,02,29.70
2016,08,18,17,03,29.70
2016,08,18,17,04,29.80
2016,08,18,17,05,29.80
2016,08,18,17,06,29.70
2016,08,18,17,07,29.70
2016,08,18,17,08,29.70
2016,08,18,17,09,29.60
2016,08,18,17,10,29.60
2016,08,18,17,11,29.50
2016,08,18,17,12,29.50
2016,08,18,17,13,29.50
2016,08,18,17,14,29.50
2016,08,18,17,15,29.50
2016,08,18,17,16,29.50
2016,08,18,17,17,29.40
2016,08,18,17,18,29.40
2016,08,18,17,19,29.40